Theta_e
293 293 294 293 292 293 293 295 298 298 297 298 300 302 302 302 302 302 301 301 300 301 301 301 302 302 303 303 306 304 305 306 304 307 306 304 309 313 313 312 313 315 315 312 311 315 321 313 314 316 313 313 313 313
294 294 295 294 293 293 293 295 298 298 296 298 300 303 303 301 302 302 302 301 301 302 301 301 302 303 303 303 303 303 305 304 306 305 308 307 312 311 312 313 310 314 313 314 315 319 315 314 314 313 312 311 312 313
295 294 295 296 296 293 293 294 298 298 296 298 300 304 303 301 302 302 302 302 301 301 302 303 303 303 303 303 303 303 304 305 305 306 306 306 309 311 311 313 311 311 310 314 313 317 314 313 314 312 312 311 312 312
300 297 296 296 297 296 293 293 298 299 296 298 301 305 304 303 301 300 302 301 301 301 303 304 305 305 306 306 306 305 305 306 306 306 307 307 309 309 310 309 309 309 310 312 312 313 312 314 312 311 311 311 311 315
306 303 300 298 297 298 298 294 295 299 296 298 301 305 304 304 304 303 301 302 303 303 304 304 304 304 305 305 304 306 306 304 304 306 307 307 307 309 310 309 310 310 310 313 314 311 312 311 311 311 311 311 312 313
307 308 304 303 304 300 301 297 296 298 295 298 302 306 305 305 306 305 303 304 305 304 303 304 304 304 305 306 307 307 305 306 305 307 307 307 308 309 310 310 307 309 309 309 311 309 309 310 311 310 310 311 313 318
308 307 308 304 305 305 301 301 297 296 295 299 303 306 306 306 307 307 306 306 304 304 304 304 303 304 305 307 307 308 307 307 306 307 307 305 305 307 305 307 307 307 307 310 310 310 312 311 311 311 311 311 312 318
306 307 307 307 305 305 302 303 297 294 295 299 305 307 306 308 308 307 307 307 306 304 304 304 304 306 305 307 308 306 307 307 307 307 305 303 304 304 305 306 307 307 307 309 310 311 311 309 309 311 311 311 312 314
306 307 307 307 306 306 305 304 297 295 295 300 306 307 308 308 308 307 308 306 305 304 303 303 305 306 306 307 306 305 306 308 306 306 308 307 304 306 307 308 307 307 307 307 307 307 308 309 309 310 311 311 312 314
305 306 307 308 307 307 306 303 297 294 295 299 307 307 307 308 309 309 306 306 305 305 305 305 304 305 305 307 307 303 304 305 309 307 306 307 306 306 306 306 306 307 307 307 306 306 308 310 309 309 311 313 311 313
305 305 307 308 307 307 306 300 298 295 295 297 301 308 308 308 309 308 306 305 305 304 306 306 305 304 307 307 305 303 303 303 306 308 308 309 309 306 307 307 307 308 309 309 308 308 307 307 309 310 309 313 311 311
306 305 307 307 307 306 305 304 304 296 295 297 301 304 307 307 306 304 299 302 304 305 306 305 307 308 307 305 301 304 304 303 306 305 308 310 309 308 308 309 309 309 309 310 310 309 308 308 310 311 310 310 310 310
305 305 306 306 306 306 305 305 305 300 296 300 307 306 306 305 299 306 305 305 304 305 307 306 302 308 307 304 302 299 299 305 304 305 308 309 308 308 308 309 310 310 310 309 309 309 310 311 312 312 311 309 309 310
304 305 305 306 305 306 306 305 305 298 298 306 308 304 302 302 300 299 300 302 307 307 307 305 304 304 304 302 304 302 304 300 296 300 307 307 307 308 308 309 310 310 310 309 309 310 312 313 314 314 310 309 309 310
304 305 305 305 304 304 305 305 305 298 302 308 307 303 303 305 305 306 306 306 307 306 306 305 303 305 298 303 303 301 302 296 302 305 307 308 307 308 308 309 310 309 309 310 309 309 311 312 314 312 309 309 310 310
304 305 304 303 303 304 304 304 304 304 307 308 309 305 305 304 304 305 306 306 306 306 306 306 301 302 302 304 298 304 306 302 306 303 307 307 308 308 308 309 310 309 309 310 310 310 310 312 314 316 313 310 313 312
302 304 304 303 303 304 304 304 300 308 310 310 306 308 307 305 306 306 306 307 306 306 303 302 305 304 299 296 299 304 308 302 306 308 308 308 308 308 308 309 310 309 309 309 312 312 312 311 313 315 316 317 316 314
299 302 302 302 302 304 303 299 305 308 309 310 305 307 306 306 307 306 306 306 306 306 306 304 304 302 296 296 294 296 304 307 308 308 308 308 308 307 308 309 310 310 309 308 311 311 311 312 313 314 314 314 316 314
299 300 301 303 300 299 299 299 304 308 309 307 307 307 306 306 306 306 306 306 305 306 307 306 304 302 301 302 302 306 307 307 307 308 308 308 307 307 307 309 309 309 309 309 309 309 308 310 311 312 313 313 313 315
300 300 302 303 300 298 296 299 304 307 306 307 306 306 306 305 305 305 305 305 305 306 304 304 303 305 306 307 307 307 308 308 307 307 307 308 307 307 307 308 308 308 309 310 310 310 309 308 308 309 310 311 314 317
299 300 301 301 300 298 297 296 300 304 307 306 307 306 306 306 305 305 305 305 305 304 301 306 306 306 306 307 307 307 307 307 307 307 307 307 307 307 307 307 307 307 307 309 310 310 309 308 307 307 308 309 312 314
298 299 298 299 299 298 299 298 296 300 303 305 304 304 304 303 304 305 305 304 304 306 306 306 306 306 306 307 307 307 307 307 307 307 307 307 307 307 306 306 306 307 307 308 309 308 308 307 307 306 306 307 309 309
297 297 297 298 297 300 302 301 303 304 301 301 304 302 301 302 303 303 303 304 305 305 305 306 306 306 306 306 307 307 306 306 306 306 306 306 306 306 305 305 305 307 307 307 308 308 308 307 307 307 306 305 306 306
296 296 297 298 297 297 300 302 304 303 303 300 298 303 302 302 303 302 301 302 305 306 305 306 305 306 306 306 307 307 306 306 306 306 305 305 305 305 306 306 304 304 307 306 307 307 307 308 308 308 309 308 306 305
297 297 296 295 298 300 301 301 300 296 303 302 302 301 299 303 299 301 302 302 304 304 304 304 304 305 305 305 306 306 306 305 305 305 304 304 305 304 304 304 303 302 304 306 306 306 306 306 307 308 308 308 308 306
296 297 295 296 297 299 300 302 301 300 300 301 300 301 302 298 301 302 300 303 304 304 303 303 303 304 305 305 306 306 305 304 304 303 302 303 302 301 302 303 303 303 303 302 305 306 306 306 305 306 308 307 307 308
292 291 295 296 297 299 298 300 300 298 301 301 297 299 299 303 302 300 302 302 302 304 304 304 303 304 306 305 305 304 304 303 303 302 302 302 302 302 302 302 302 303 303 303 303 304 305 305 304 305 307 306 306 306
294 294 295 296 295 297 298 296 298 300 300 301 301 302 303 301 300 301 301 301 302 304 305 305 304 304 304 304 303 301 303 303 303 302 302 301 300 301 302 302 302 302 303 303 303 303 303 303 303 303 304 305 305 305
294 295 294 295 295 296 296 297 297 298 299 301 300 301 302 302 302 302 302 302 301 301 304 304 305 305 304 303 300 300 301 302 302 302 301 300 300 299 299 300 301 301 301 302 301 301 300 300 299 300 301 301 301 301
293 294 295 295 295 296 297 298 298 299 299 300 300 300 301 300 300 299 300 301 302 301 301 302 302 302 301 300 301 302 303 302 301 300 298 297 298 297 298 299 299 299 299 300 299 299 299 299 299 298 298 298 298 299
295 295 295 295 296 296 297 297 297 298 298 298 298 298 299 298 298 299 300 300 301 301 301 302 302 301 300 300 301 302 301 300 298 298 297 297 298 298 297 297 297 298 298 298 298 298 298 297 296 296 295 295 295 295
294 294 295 295 294 297 296 297 297 297 297 297 298 298 298 299 299 300 299 300 300 300 300 301 300 300 300 300 300 299 297 297 296 297 296 295 296 297 297 297 297 297 297 297 297 297 296 296 295 294 293 293 293 292
294 294 295 296 296 296 297 297 297 297 298 298 299 299 299 299 298 297 297 298 299 300 300 300 300 299 297 296 298 299 299 298 298 297 295 295 295 295 295 295 295 295 296 296 296 295 295 294 293 292 291 291 290 290
Wind_Speed
28 30 32 33 34 33 32 31 25 27 32 33 33 30 17 12 7 12 14 12 13 9 25 22 10 13 11 9 3 6 9 0 2 2 1 3 2 2 3 2 1 3 4 3 3 3 5 15 7 7 7 16 18 20
28 29 31 33 34 35 33 31 25 30 33 34 34 28 18 12 7 10 15 10 8 15 21 33 31 23 23 24 20 5 4 5 3 2 2 2 2 1 3 3 3 2 2 2 2 3 5 17 8 12 14 19 19 26
29 29 30 32 34 35 35 33 26 31 34 34 34 27 17 14 9 10 14 12 15 12 18 9 9 15 11 10 7 7 5 5 4 5 2 2 3 2 2 0 1 0 4 3 2 2 12 23 14 15 24 28 30 29
30 30 30 32 34 35 36 36 29 30 35 34 32 24 14 13 11 9 10 11 10 8 5 11 18 11 9 14 8 14 20 8 7 3 2 2 2 3 3 2 2 2 2 0 5 6 16 2 23 29 36 37 38 35
31 31 32 32 33 35 36 37 32 30 34 34 30 21 15 12 13 14 10 7 8 6 5 12 19 4 9 12 13 9 3 17 11 4 2 3 3 1 1 1 2 3 2 1 2 7 9 14 25 30 32 36 41 36
31 33 32 34 34 35 37 39 33 33 34 32 29 18 14 12 12 13 4 3 7 11 5 4 10 11 14 21 19 14 5 4 5 3 3 5 6 3 1 1 6 10 9 9 3 14 19 26 26 19 32 34 37 29
31 33 34 34 36 35 36 38 33 36 35 32 27 18 12 9 9 6 5 12 11 5 4 5 6 6 14 14 10 8 3 2 4 3 4 4 3 4 2 0 9 16 17 11 21 20 14 11 24 33 34 31 32 23
31 31 32 35 35 36 34 36 34 37 36 30 24 16 9 4 5 2 5 12 7 3 2 2 4 7 7 6 4 9 4 1 3 3 4 2 6 2 2 2 9 12 18 14 9 16 21 26 26 28 30 27 29 28
29 29 30 32 33 36 36 35 33 37 36 26 21 10 2 2 4 5 10 1 2 3 1 2 3 4 7 4 4 7 4 1 5 2 2 6 3 1 3 11 16 14 9 17 24 22 23 24 23 28 27 25 28 28
30 27 28 30 33 36 38 35 29 36 35 22 11 4 2 6 13 5 1 1 4 3 3 3 4 3 3 3 3 5 4 2 2 1 7 1 1 6 6 17 21 21 21 22 22 20 21 19 20 27 25 24 28 26
29 30 28 30 30 34 37 30 33 37 32 23 10 5 11 9 2 2 2 1 1 2 5 6 7 3 2 1 2 3 1 2 2 2 3 2 3 5 20 22 24 22 20 19 28 28 25 28 26 24 28 24 24 25
29 30 27 26 28 32 33 29 33 33 30 26 17 19 9 3 2 1 1 3 1 3 4 3 5 4 2 2 0 2 1 1 2 6 1 2 4 27 29 29 22 22 19 18 22 24 22 23 26 28 27 25 24 26
29 30 28 24 26 28 29 31 33 31 29 17 4 4 3 2 4 3 1 3 2 3 6 7 5 3 1 2 1 2 3 2 8 2 3 2 17 30 32 31 27 24 20 15 13 15 18 21 20 26 29 23 23 25
29 31 32 26 26 25 30 32 33 29 15 3 3 5 3 3 4 4 4 4 6 9 18 16 2 1 2 3 1 2 2 2 4 4 2 4 20 27 31 29 29 29 25 20 18 16 15 15 19 22 28 24 28 24
28 29 28 24 23 27 30 31 28 23 5 4 3 4 5 8 6 5 7 8 11 12 11 3 0 2 2 2 2 2 4 2 2 3 3 19 32 31 32 28 26 31 38 27 15 13 14 13 10 18 19 20 24 18
26 29 24 20 26 29 30 30 23 5 4 6 7 3 5 1 5 5 7 11 9 6 4 1 1 2 1 1 3 1 2 2 3 3 19 28 29 31 34 32 31 30 41 37 23 8 9 12 10 8 17 20 27 19
24 27 24 26 28 27 29 24 5 6 6 5 7 13 12 7 10 11 11 13 8 5 1 2 1 4 1 3 2 3 3 3 10 24 26 23 24 29 29 30 30 30 32 38 23 19 14 11 13 13 14 13 10 14
28 25 22 22 26 28 22 4 4 5 7 12 5 12 14 16 17 15 15 12 8 4 5 3 5 2 4 4 4 4 11 14 17 17 15 16 21 25 26 26 29 30 33 42 34 23 19 19 12 12 16 17 12 13
24 22 18 15 16 15 6 4 5 5 10 10 15 17 17 14 17 17 15 15 12 10 4 6 3 3 3 6 7 8 10 7 12 14 15 10 14 20 24 24 25 24 29 29 31 29 29 26 20 16 16 17 17 17
22 21 13 10 9 4 5 6 5 7 6 5 10 11 11 14 16 18 20 17 14 6 4 4 5 7 9 11 10 10 11 11 13 12 12 10 11 16 19 21 23 26 27 24 25 23 26 30 27 24 18 12 12 14
21 17 12 9 6 9 7 6 7 7 8 6 8 6 7 10 13 15 18 15 10 6 3 11 16 18 15 12 10 8 9 9 8 8 10 11 10 11 13 16 18 21 24 25 23 22 20 21 23 25 30 24 11 12
20 17 15 10 7 6 10 12 9 5 6 8 9 10 7 5 8 15 14 11 7 12 16 17 21 18 18 18 17 11 8 9 8 7 7 7 9 10 11 15 19 21 20 20 19 21 19 19 22 25 30 29 24 28
18 16 9 9 8 7 8 10 7 6 4 4 2 3 3 3 5 4 5 8 15 22 21 20 21 20 19 17 18 14 11 9 8 6 2 4 6 8 8 12 16 18 17 17 18 18 18 17 17 18 22 27 28 25
13 6 5 6 12 5 5 5 7 5 5 1 2 4 3 5 3 3 4 5 17 16 14 12 11 14 17 17 19 17 12 8 5 5 0 3 8 8 9 10 12 12 13 13 14 16 17 17 16 16 15 16 21 26
5 7 6 7 8 5 4 3 3 1 5 5 3 4 4 3 1 3 3 5 14 17 17 17 17 18 22 22 18 17 13 7 6 4 2 4 6 9 9 8 9 13 11 10 11 13 15 15 15 14 13 12 10 17
6 9 10 8 4 5 4 3 5 5 3 3 5 4 2 1 2 5 3 6 14 17 15 17 20 20 23 18 17 14 12 11 10 4 2 4 6 10 12 12 14 10 11 12 9 8 10 11 13 14 13 15 12 13
5 6 8 10 5 3 4 6 5 2 3 4 3 1 0 3 4 3 9 15 15 11 12 11 11 17 19 17 15 14 13 13 8 3 4 3 5 7 8 9 11 10 10 11 11 10 9 11 11 11 10 11 12 12
12 5 6 6 7 9 3 2 3 4 4 5 2 4 3 4 3 4 8 18 13 9 6 3 10 15 12 14 15 12 14 13 10 8 6 2 4 3 5 8 9 8 7 8 11 13 14 13 13 12 10 9 9 9
8 9 11 4 8 7 10 7 5 8 7 9 4 4 3 3 5 11 11 14 13 7 9 8 11 13 13 13 13 13 13 15 13 12 9 7 6 3 4 4 6 6 7 7 8 9 10 11 13 13 11 9 8 8
9 17 9 8 5 7 13 15 10 14 14 13 16 12 13 17 18 17 19 21 19 12 8 9 7 6 7 12 14 18 19 17 13 11 10 7 4 3 3 3 3 3 4 6 10 13 13 11 9 9 9 9 8 7
6 17 8 11 10 21 22 23 19 22 22 21 20 19 21 18 15 12 14 14 18 10 11 11 12 12 8 9 15 17 13 11 9 6 3 3 4 4 5 5 3 3 5 7 10 10 10 10 10 10 9 8 8 7
12 14 7 4 4 11 14 16 16 15 19 18 16 14 10 11 6 3 4 6 7 11 10 11 15 16 16 17 16 14 10 8 4 3 6 7 7 7 7 7 6 3 2 4 5 5 5 8 9 10 10 9 8 7
14 12 13 9 4 4 10 11 8 4 7 7 6 6 6 6 3 3 3 4 5 8 12 11 11 12 13 11 3 5 8 9 11 7 7 6 5 3 2 2 2 0 1 1 1 2 4 5 7 8 8 8 7 6
Wind_Direction
341 343 345 347 346 347 346 346 345 349 347 343 341 340 342 322 309 286 290 283 261 266 283 271 272 256 262 256 275 324 323 342 297 261 222 261 279 293 332 37 148 118 168 181 197 236 273 1 12 54 277 306 313 315
339 341 343 344 345 346 346 345 342 347 349 345 343 340 340 330 306 273 279 289 269 256 269 294 294 284 272 273 265 262 266 291 276 313 340 281 289 3 287 207 244 154 193 126 251 287 326 322 306 299 321 317 319 313
336 338 340 342 343 344 345 345 339 343 347 346 344 342 337 338 314 259 275 271 275 276 308 330 325 332 320 296 273 221 235 235 245 256 337 288 288 262 273 178 113 72 179 211 268 23 325 309 316 326 331 327 323 325
333 335 336 339 341 342 343 343 337 341 345 345 344 343 334 339 328 309 266 273 254 276 283 287 322 330 350 343 324 254 253 263 301 322 272 266 283 307 336 334 339 287 282 218 275 311 322 195 335 334 331 337 336 342
332 332 335 335 338 340 340 341 338 338 344 342 340 339 333 326 331 330 298 271 262 265 286 300 326 298 313 314 310 308 287 249 265 279 243 246 248 272 262 207 252 205 199 249 266 261 279 287 316 336 335 328 338 335
331 333 331 333 336 336 338 340 338 338 342 339 336 330 326 315 323 336 319 289 290 241 299 305 323 310 339 328 317 244 276 258 197 226 269 268 248 209 323 267 9 3 300 226 238 303 292 299 317 334 334 334 343 344
324 329 330 329 334 334 334 338 335 338 341 336 333 330 318 302 307 320 315 307 320 242 295 299 299 290 325 358 4 37 55 227 205 231 241 244 274 205 216 10 348 338 324 296 265 305 310 322 312 317 325 330 339 348
316 321 328 329 330 335 332 334 332 337 340 335 331 331 334 304 309 257 291 315 311 230 289 292 279 312 340 331 359 6 14 272 223 284 307 325 315 28 34 333 342 335 337 327 257 267 289 299 307 307 312 326 329 345
312 318 324 330 331 335 335 333 329 335 341 336 331 328 342 5 335 293 314 299 151 265 196 259 289 300 324 306 1 345 354 351 350 285 353 344 3 2 320 336 324 324 288 286 304 288 279 281 295 290 298 320 322 339
306 313 320 325 329 330 333 333 330 335 342 342 335 327 256 323 323 317 218 211 203 226 231 248 243 268 286 305 30 4 16 19 332 253 312 259 254 245 280 317 312 300 291 282 270 281 283 278 281 284 294 301 310 323
304 308 317 323 327 329 331 330 333 334 348 351 332 288 308 317 288 247 222 180 312 264 219 244 235 266 296 342 334 25 337 317 321 359 328 335 333 273 314 310 318 313 303 296 270 272 273 267 268 277 278 279 301 311
298 305 312 321 325 328 330 328 334 336 336 322 303 293 301 288 248 171 308 320 216 255 271 231 304 266 308 317 116 349 34 356 310 335 300 357 291 316 326 331 329 336 342 310 283 270 270 264 257 262 265 274 287 304
297 297 300 315 324 322 327 331 335 329 327 322 280 281 279 274 31 140 231 301 307 270 275 326 323 331 305 17 114 50 41 320 322 355 343 251 311 326 330 334 333 347 330 340 323 276 267 256 258 258 258 264 276 285
297 296 299 302 316 316 317 323 329 325 326 279 257 290 175 260 245 187 188 206 263 252 289 318 283 42 357 48 308 8 346 47 20 27 298 275 311 320 332 341 334 333 331 330 308 304 274 264 281 257 253 261 266 276
297 299 305 311 308 315 315 319 325 319 233 234 230 247 227 235 238 234 251 274 281 295 303 301 52 42 2 71 5 14 15 351 194 246 252 301 319 332 339 336 352 353 348 346 316 294 270 274 288 243 252 261 261 261
300 301 315 318 316 314 318 320 324 285 244 230 228 263 246 270 268 243 239 274 303 280 311 22 70 59 59 27 48 94 312 257 276 241 301 325 333 343 350 358 6 4 9 10 11 341 275 275 272 258 236 245 267 249
296 294 308 316 319 317 320 315 277 221 232 232 244 230 238 256 238 263 284 290 286 288 228 117 19 221 87 41 330 200 212 224 260 305 317 332 338 348 355 1 7 11 14 18 21 12 351 309 282 277 280 289 285 228
286 291 303 320 318 328 324 272 237 244 245 242 235 249 241 246 252 256 273 270 262 229 177 208 130 137 175 177 257 238 238 283 301 308 332 342 352 358 5 7 7 14 22 23 26 33 24 14 346 308 291 291 291 234
292 298 310 312 312 334 300 265 242 263 248 260 259 258 260 265 260 257 259 273 270 241 193 168 140 191 226 217 229 254 267 285 314 316 329 331 353 3 6 10 12 13 19 26 25 27 32 32 26 1 326 299 283 260
294 295 305 300 282 295 274 264 246 262 266 260 263 259 257 258 271 268 262 251 246 209 176 191 207 217 211 231 246 253 260 279 295 302 321 332 348 359 4 11 17 16 17 16 22 21 24 22 15 13 8 336 294 281
299 301 297 288 269 219 255 262 245 248 273 262 279 273 262 255 258 258 253 244 207 211 216 217 240 257 244 229 234 242 242 261 276 280 310 324 346 345 358 10 10 14 14 17 20 22 30 24 21 10 7 19 360 303
286 294 294 274 226 226 251 238 233 283 271 264 282 264 240 237 238 245 247 203 218 235 231 246 261 259 239 227 222 240 249 252 248 265 305 302 320 339 353 4 6 10 14 17 16 16 24 27 22 24 22 19 38 43
287 286 255 215 222 230 252 226 221 217 235 259 281 268 251 243 231 245 236 236 244 246 238 249 257 247 236 228 218 225 233 240 250 257 287 327 322 330 347 6 7 5 11 16 19 11 16 24 22 31 34 34 31 33
268 235 231 224 207 256 247 230 214 239 233 241 215 260 244 232 244 220 248 243 253 243 240 233 239 240 222 215 215 217 207 215 228 191 295 349 3 2 327 337 355 357 6 8 13 15 7 8 14 17 29 45 53 50
221 230 206 236 217 231 232 241 223 190 243 200 212 264 265 228 179 249 235 257 258 252 245 257 250 241 228 219 208 198 200 219 227 225 296 334 343 342 338 351 351 346 347 358 8 9 9 8 15 17 21 42 56 75
216 216 195 205 210 205 218 236 214 220 207 213 230 247 266 110 268 252 245 269 260 266 273 262 251 235 218 223 224 204 191 196 201 206 348 331 349 347 335 331 334 337 348 356 358 4 12 16 15 17 27 43 35 72
226 254 222 224 230 242 273 256 249 241 238 217 238 298 128 226 248 273 343 6 328 306 301 281 243 222 216 186 180 187 198 196 200 262 266 272 319 321 324 329 340 346 348 350 5 7 19 14 22 26 33 49 51 44
221 227 202 204 209 220 245 258 231 224 231 223 172 197 225 210 245 330 344 353 348 331 293 234 180 183 187 187 186 193 193 198 205 215 202 219 301 318 331 328 339 352 349 6 45 54 48 39 28 23 25 29 40 40
215 211 198 211 214 227 215 211 220 224 219 190 182 216 243 242 282 297 294 300 329 308 248 204 200 203 202 200 201 204 210 207 211 205 214 222 204 251 303 309 299 312 328 345 356 14 31 35 24 14 13 13 16 18
226 198 194 207 202 220 227 221 243 254 247 241 257 258 263 268 278 292 292 267 291 294 241 216 210 239 232 227 211 196 192 196 209 224 225 214 226 256 285 313 337 338 330 341 352 355 355 349 3 2 1 358 359 4
185 189 219 227 242 247 251 257 261 260 262 262 267 258 259 270 280 270 279 269 252 294 252 240 247 232 203 204 212 200 198 209 205 206 221 240 237 240 231 229 259 293 304 316 327 333 343 352 0 1 358 359 1 3
198 191 199 216 256 255 240 245 251 244 247 248 248 239 231 202 202 227 305 232 271 229 236 239 216 196 199 198 195 200 190 174 179 263 294 273 255 253 261 274 273 268 320 338 354 13 14 8 5 3 1 7 12 18
212 215 216 251 283 248 246 209 215 233 210 210 212 183 168 166 107 43 358 297 252 241 236 206 182 165 153 150 179 288 290 295 293 255 220 222 227 225 215 210 205 236 318 340 11 324 351 6 9 6 1 3 11 26